Date,TemperatureHighF,TemperatureAvgF,TemperatureLowF,DewpointHighF,DewpointAvgF,DewpointLowF,HumidityHigh,HumidityAvg,HumidityLow,PressureMaxIn,PressureMinIn,WindSpeedMaxMPH,WindSpeedAvgMPH,GustSpeedMaxMPH,PrecipitationSumIn
2013-8-1,87.0,73.6,68.0,75.9,69.8,66.6,97,89,57,29.88,29.75,1,0,1,0.22
2013-8-2,84.0,73.5,63.3,73.2,67.8,62.1,97,84,60,29.92,29.81,0,0,0,0.01
2013-8-3,87.3,75.5,67.3,75.0,69.2,66.1,97,83,55,29.92,29.82,0,0,0,0.00
2013-8-4,86.8,74.6,65.1,71.3,65.7,61.8,97,77,45,29.93,29.82,6,1,11,0.01
2013-8-5,83.7,73.0,63.5,71.9,66.2,61.7,95,81,63,29.97,29.85,5,0,11,0.11
2013-8-6,80.0,72.7,68.5,71.8,69.2,67.0,96,89,74,29.94,29.85,7,1,12,0.01
2013-8-7,76.7,72.1,69.1,73.5,70.3,67.5,97,94,89,29.97,29.90,1,0,12,0.43
2013-8-8,83.5,75.5,69.8,75.6,72.3,68.9,97,90,75,29.95,29.88,6,0,15,0.01
2013-8-9,89.4,76.6,69.3,76.5,72.5,68.1,98,88,63,29.94,29.88,8,0,15,0.04
2013-8-10,88.7,75.0,69.9,76.8,71.8,68.7,97,90,65,30.00,29.92,6,0,11,0.29
2013-8-11,88.5,75.5,67.0,77.2,71.4,66.1,98,88,62,30.02,29.91,4,0,9,0.01
2013-8-12,89.2,75.9,67.8,76.5,71.4,66.6,98,87,63,29.95,29.84,3,0,9,0.02
2013-8-13,87.0,74.7,69.3,75.4,70.5,66.0,97,88,65,29.84,29.70,7,1,9,0.06
2013-8-14,81.3,72.9,63.1,67.5,62.9,58.7,93,73,49,29.97,29.76,4,0,8,0.00
2013-8-15,70.7,62.5,55.8,60.9,57.6,54.1,95,84,68,30.07,29.96,2,0,7,0.00
2013-8-19,75.4,70.7,67.0,69.6,67.6,65.7,97,90,79,30.07,29.98,1,0,7,0.40
2013-8-20,78.8,71.0,65.0,71.5,67.9,63.8,98,90,75,30.09,30.00,0,0,5,0.00
2013-8-21,79.1,71.3,66.0,73.1,68.9,64.8,97,92,80,30.14,29.99,1,0,1,0.01
2013-8-22,87.4,75.6,67.0,76.2,70.2,66.1,98,85,60,30.05,29.88,1,0,8,0.01
2013-8-23,85.1,72.4,63.8,74.8,68.8,62.6,97,89,62,29.99,29.86,6,0,9,0.16
2013-8-24,79.9,69.8,60.7,67.2,62.5,58.8,97,79,56,30.21,29.99,5,0,9,0.00
2013-8-25,79.6,66.5,55.1,65.7,60.4,53.7,98,82,58,30.30,30.18,4,0,9,0.00
2013-8-26,83.9,69.4,55.9,70.9,63.1,54.5,97,82,56,30.24,30.00,3,0,9,0.01
2013-8-27,88.3,72.8,59.8,75.0,66.7,58.7,97,83,56,30.03,29.89,2,0,10,0.01
2013-8-28,88.6,75.8,65.1,77.1,70.1,63.8,97,84,61,29.92,29.80,1,0,10,0.00
2013-8-29,92.2,76.1,68.7,77.8,71.0,67.2,97,86,52,29.89,29.77,9,0,12,0.69
2013-8-30,83.3,75.3,70.3,73.9,71.2,69.4,97,88,70,29.94,29.82,1,0,6,0.04
2013-8-31,87.4,73.9,68.5,77.0,70.9,67.3,97,91,66,29.84,29.76,12,0,12,0.30